Location: Mahannah Oil Field
(37.4664°N, 96.6003°W)
Time: 01:55:25
(UTC+00:00)

deb Explorer IX - Pass Details

Date: 23 January 2021
Orbit: 537 x 1102 km, 38.8° (Epoch: 25 February)

Event Time Altitude Azimuth Distance (km) Brightness Sun altitude
Rises 05:12:28 0° 284° (WNW) 3,139 - -64.0°
Reaches altitude 10° 05:15:06 10° 279° (W) 2,123 - -64.4°
Maximum altitude 05:19:47 49° 205° (SSW) 794 - -65.1°
Drops below altitude 10° 05:23:54 10° 130° (SE) 1,865 - -65.7°
Sets 05:26:05 0° 124° (SE) 2,718 - -66.0°
